Location: Barcelona
(41.3829°N, 2.1774°E)
Time: 13:32:05
(UTC+00:00)

ISS - Pass Details

Date: 11 July 2024
Orbit: 410 x 424 km, 51.6° (Epoch: 14 July)

Event Time Altitude Azimuth Distance (km) Brightness Sun altitude
Rises 01:49:58 0° 309° (NW) 2,348 0.2 -21.4°
Reaches altitude 10° 01:52:11 10° 319° (NW) 1,485 -0.8 -21.2°
Maximum altitude 01:55:16 35° 27° (NNE) 687 -2.1 -20.9°
Drops below altitude 10° 01:58:23 10° 95° (E) 1,487 -0.7 -20.6°
Sets 02:00:35 0° 105° (ESE) 2,350 0.2 -20.4°
